Погода в Самаре

Россия / Рязанская область     54°00′54″N   38°49′56″E
темп.,
°C
ветер,
м/с
пор.,
м/с
влажн.,
%
обл.,
%
осадки,
мм/ч
давл.,
гПа
погр.,
м
14 апреля, ср
ср1400:00+12юв515565 0.0 1022315
03:00+9ююв487098 0.0 1022128
06:00+9ююв3481100 0.0 102254
09:00+12юв4662100 0.0 1021251
12:00+17ююв5739100 0.0 1020679
15:00+19ююв572841 0.0 10181632
18:00+17юв473643 0.0 1017182
21:00+13юв3347100 0.0 101845
15 апреля, чт
чт1500:00+11юв345497 0.0 101756
03:00+10вюв335993 0.0 101733
06:00+8вюв3464100 0.0 101754
09:00+12вюв3453100 0.0 1017188
12:00+16в4540100 0.0 1016691
15:00+18в5638100 0.0 10151399
18:00+16всв4851100 0.0 1014255
21:00+13св71371100 0.7 1015309
16 апреля, пт
пт1600:00+11всв4974100 0.0 1015231
03:00+9всв51082100 0.1 1016218
06:00+9всв5985100 0.0 1017259
09:00+11всв6771100 0.1 1018356
12:00+15в6761100 0.1 1018895
15:00+17в7950100 0.1 10181540
18:00+16всв81263100 0.8 1018716
21:00+12всв91578100 3.6 1020538
17 апреля, сб
сб1700:00+10в7148395 2.4 1021498
03:00+9всв71388100 3.2 1022484
06:00+7всв71387100 0.4 1023439
09:00+8всв81370100 0.4 1024612
12:00+11всв8125793 0.0 1025845
15:00+13всв911467 0.0 10241406
18:00+12всв812435 0.0 10251157
21:00+9всв715515 0.0 1026605
18 апреля, вс
вс1800:00+7всв715595 0.0 1027503
03:00+6всв7156296 0.0 1027438
06:00+5всв6136466 0.0 1027444
09:00+7в6115974 0.0 1028637
12:00+12в784289 0.0 10281465
15:00+13в6740100 0.0 10271836
18:00+12в5847100 0.0 1027569
21:00+9всв5115998 0.0 1028301